Change the Weather History Date:

Friday, October 19, 2012

  Actual Average Record
Temperature  
Mean Temperature 60 °F -  
Max Temperature 66 °F 70 °F 88 °F (2014)
Min Temperature 55 °F 51 °F 44 °F (1998)
Degree Days  
Heating Degree Days 4    
Growing Degree Days 10 (Base 50)    
Moisture  
Dew Point 54 °F    
Average Humidity 80    
Maximum Humidity 100    
Minimum Humidity 56    
Precipitation  
Precipitation 0.00 in - - ()
Sea Level Pressure  
Sea Level Pressure 29.81 in    
Wind  
Wind Speed 4 mph ()    
Max Wind Speed 8 mph    
Max Gust Speed -    
Visibility 6.2 miles    
Events Rain    
Averages and records for this station are not official NWS values.
T = Trace of Precipitation, MM = Missing Value Source: Averaged Metar Reports

Daily Weather History Graph

Daily Weather History Graph

Search for Another Location

Airport or City:

Trip Planner

Search our weather history database for the weather conditions in past years. The results will help you decide how hot, cold, wet, or windy it might be!

Date:

Astronomy

Oct. 19, 2012 Rise Set
Actual Time 8:35 AM CEST 7:40 PM CEST
Civil Twilight 8:09 AM CEST 8:07 PM CEST
Nautical Twilight 7:38 AM CEST 8:37 PM CEST
Astronomical Twilight 7:08 AM CEST 9:07 PM CEST
Moon 1:00 PM CEST (10/19) 11:07 PM CEST (10/19)
Length of Visible Light 11h 57m
Length of Day
11h 05m
Waxing Crescent, 21% of the Moon is Illuminated
Oct 19
Waxing Crescent
Oct 22
First Quarter
Oct 29
Full
Nov 7
Last Quarter
Nov 13
New

Hourly Weather History & Observations

Time (CEST) Temp. Dew Point Humidity Pressure Visibility Wind Dir Wind Speed Gust Speed Precip Events Conditions
12:00 AM 57.2 °F 53.6 °F 88% 29.74 in 6.2 mi SW 8.1 mph - N/A   Scattered Clouds
12:30 AM 57.2 °F 53.6 °F 88% 29.74 in 6.2 mi SW 6.9 mph - N/A   Scattered Clouds
4:30 AM 55.4 °F 55.4 °F 100% 29.77 in 6.2 mi ESE 3.5 mph - N/A   Mostly Cloudy
5:00 AM 57.2 °F 55.4 °F 94% 29.77 in 6.2 mi ESE 3.5 mph - N/A   Mostly Cloudy
5:30 AM 55.4 °F 55.4 °F 100% 29.77 in 6.2 mi Variable 1.2 mph - N/A   Mostly Cloudy
6:00 AM 55.4 °F 55.4 °F 100% 29.77 in 6.2 mi Calm Calm - N/A   Mostly Cloudy
7:00 AM 55.4 °F 53.6 °F 94% 29.77 in 6.2 mi North 5.8 mph - N/A   Mostly Cloudy
7:30 AM 55.4 °F 53.6 °F 94% 29.77 in 6.2 mi Variable 2.3 mph - N/A   Mostly Cloudy
8:00 AM 55.4 °F 53.6 °F 94% 29.77 in 6.2 mi NNE 3.5 mph - N/A   Mostly Cloudy
8:30 AM 55.4 °F 53.6 °F 94% 29.80 in 6.2 mi NE 4.6 mph - N/A   Mostly Cloudy
9:00 AM 55.4 °F 53.6 °F 94% 29.80 in 6.2 mi ENE 4.6 mph - N/A   Mostly Cloudy
9:30 AM 57.2 °F 53.6 °F 88% 29.80 in 6.2 mi NE 3.5 mph - N/A   Mostly Cloudy
10:00 AM 57.2 °F 53.6 °F 88% 29.83 in 6.2 mi ENE 6.9 mph - N/A   Mostly Cloudy
10:30 AM 57.2 °F 55.4 °F 94% 29.83 in 6.2 mi ENE 3.5 mph - N/A   Mostly Cloudy
11:00 AM 59.0 °F 55.4 °F 88% 29.83 in 6.2 mi NNE 3.5 mph - N/A   Mostly Cloudy
11:30 AM 59.0 °F 55.4 °F 88% 29.83 in 6.2 mi ENE 4.6 mph - N/A   Mostly Cloudy
12:00 PM 60.8 °F 53.6 °F 77% 29.83 in 6.2 mi East 3.5 mph - N/A   Scattered Clouds
12:30 PM 62.6 °F 55.4 °F 77% 29.83 in 6.2 mi South 3.5 mph - N/A   Mostly Cloudy
1:00 PM 64.4 °F 55.4 °F 73% 29.83 in 6.2 mi SSE 5.8 mph - N/A   Mostly Cloudy
1:30 PM 62.6 °F 55.4 °F 77% 29.83 in 6.2 mi ESE 4.6 mph - N/A   Scattered Clouds
2:00 PM 64.4 °F 55.4 °F 73% 29.83 in 6.2 mi SSE 3.5 mph - N/A   Scattered Clouds
2:30 PM 64.4 °F 55.4 °F 73% 29.83 in 6.2 mi South 3.5 mph - N/A   Scattered Clouds
3:00 PM 66.2 °F 53.6 °F 64% 29.80 in 6.2 mi SW 3.5 mph - N/A   Mostly Cloudy
3:30 PM 66.2 °F 55.4 °F 68% 29.80 in 6.2 mi West 3.5 mph - N/A   Mostly Cloudy
4:00 PM 66.2 °F 51.8 °F 60% 29.80 in 6.2 mi SW 4.6 mph - N/A   Mostly Cloudy
4:30 PM 66.2 °F 50.0 °F 56% 29.80 in 6.2 mi SW 4.6 mph - N/A   Mostly Cloudy
5:00 PM 66.2 °F 51.8 °F 60% 29.80 in 6.2 mi SSW 4.6 mph - N/A   Scattered Clouds
5:30 PM 66.2 °F 53.6 °F 64% 29.80 in 6.2 mi SW 3.5 mph - N/A   Scattered Clouds
6:00 PM 66.2 °F 50.0 °F 56% 29.80 in 6.2 mi SW 6.9 mph - N/A   Mostly Cloudy
6:30 PM 64.4 °F 51.8 °F 64% 29.80 in 6.2 mi SW 6.9 mph - N/A   Scattered Clouds
7:00 PM 64.4 °F 53.6 °F 68% 29.83 in 6.2 mi SW 5.8 mph - N/A   Scattered Clouds
7:30 PM 64.4 °F 53.6 °F 68% 29.83 in 6.2 mi South 4.6 mph - N/A Rain Light Rain Showers
8:00 PM 62.6 °F 55.4 °F 77% 29.83 in 6.2 mi SSW 5.8 mph - N/A   Scattered Clouds
8:30 PM 60.8 °F 53.6 °F 77% 29.83 in 6.2 mi SSW 3.5 mph - N/A   Scattered Clouds
9:00 PM 60.8 °F 53.6 °F 77% 29.83 in 6.2 mi Calm Calm - N/A   Partly Cloudy
9:30 PM 60.8 °F 51.8 °F 72% 29.83 in 6.2 mi SSW 1.2 mph - N/A   Partly Cloudy
10:00 PM 60.8 °F 53.6 °F 77% 29.83 in 6.2 mi Variable 2.3 mph - N/A   Partly Cloudy
10:30 PM 59.0 °F 53.6 °F 82% 29.83 in 6.2 mi Calm Calm - N/A   Partly Cloudy
11:00 PM 59.0 °F 53.6 °F 82% 29.86 in 6.2 mi SE 1.2 mph - N/A   Partly Cloudy
11:30 PM 59.0 °F 53.6 °F 82% 29.86 in 6.2 mi Calm Calm - N/A   Partly Cloudy